Weather History for Curacao, Curacao

Change the Weather History Date:

Friday, April 11, 2014

  Actual Average Record
Temperature  
Mean Temperature 82 °F -  
Max Temperature 87 °F 87 °F 91 °F (2001)
Min Temperature 78 °F 76 °F 75 °F (2006)
Cooling Degree Days 18    
Growing Degree Days 32 (Base 50)    
Moisture  
Dew Point 72 °F    
Average Humidity 71    
Maximum Humidity 89    
Minimum Humidity 46    
Precipitation  
Precipitation 0.00 in 0.03 in - ()
Sea Level Pressure  
Sea Level Pressure 29.98 in    
Wind  
Wind Speed 14 mph ()    
Max Wind Speed 18 mph    
Max Gust Speed -    
Visibility 8.0 miles    
Events      
Averages and records for this station are not official NWS values.
T = Trace of Precipitation, MM = Missing Value Source: Averaged Metar Reports

Daily Weather History Graph

Daily Weather History Graph

Search for Another Location

Airport:

Trip Planner

Search our weather history database for the weather conditions in past years. The results will help you decide how hot, cold, wet, or windy it might be!

Date:

Astronomy

Apr. 11, 2014 Rise Set
Actual Time 6:26 AM AST 6:47 PM AST
Civil Twilight 6:04 AM AST 7:09 PM AST
Nautical Twilight 5:39 AM AST 7:34 PM AST
Astronomical Twilight 5:14 AM AST 7:59 PM AST
Moon 3:57 PM AST (4/11) 3:42 AM AST (4/11)
Length of Visible Light 13h 04m
Length of Day
12h 21m
Waxing Gibbous, 87% of the Moon is Illuminated
Apr 11
Waxing Gibbous
Apr 15
Full
Apr 22
Last Quarter
Apr 29
New
May 6
First Quarter

Hourly Weather History & Observations

Time (AST) Temp. Heat Index Dew Point Humidity Pressure Visibility Wind Dir Wind Speed Gust Speed Precip Events Conditions
12:00 AM 78.8 °F - 75.2 °F 89% 29.98 in 6.2 mi East 15.0 mph - N/A   Partly Cloudy
1:00 AM 78.8 °F - 73.4 °F 83% 29.98 in 6.2 mi East 16.1 mph - N/A   Partly Cloudy
2:00 AM 79 °F - 74 °F 79% 29.97 in 12 mi East 15.0 mph - -   Haze
2:00 AM 78.8 °F - 73.4 °F 83% 29.95 in 6.2 mi East 15.0 mph - N/A   Partly Cloudy
3:00 AM 78.8 °F - 73.4 °F 83% 29.95 in 6.2 mi East 13.8 mph - N/A   Partly Cloudy
4:00 AM 78.8 °F - 73.4 °F 83% 29.95 in - East 13.8 mph - N/A   Partly Cloudy
5:00 AM 79 °F - 73 °F 78% 29.97 in 12 mi East 13.8 mph - -   Haze
5:00 AM 78.8 °F - 73.4 °F 83% 29.98 in 6.2 mi East 13.8 mph - N/A   Partly Cloudy
6:00 AM 78.8 °F - 73.4 °F 83% 29.98 in 6.2 mi East 15.0 mph - N/A   Partly Cloudy
7:00 AM 78.8 °F - 71.6 °F 78% 30.01 in 6.2 mi ESE 13.8 mph - N/A   Partly Cloudy
8:00 AM 81 °F - 72 °F 67% 30.03 in 12 mi East 15.0 mph - -   Haze
8:00 AM 80.6 °F 84.6 °F 71.6 °F 74% 30.01 in 6.2 mi East 15.0 mph - N/A   Scattered Clouds
9:00 AM 82.4 °F 87.2 °F 71.6 °F 70% 30.04 in 6.2 mi East 15.0 mph - N/A   Scattered Clouds
10:00 AM 84.2 °F 89.6 °F 71.6 °F 66% 30.06 in 6.2 mi East 18.4 mph - N/A   Scattered Clouds
11:00 AM 86 °F - 70 °F 50% 30.06 in 12 mi East 17.3 mph - -   Haze
11:00 AM 86.0 °F 91.8 °F 71.6 °F 62% 30.04 in 6.2 mi East 17.3 mph - N/A   Scattered Clouds
12:00 PM 86.0 °F 91.8 °F 71.6 °F 62% 30.04 in 6.2 mi East 17.3 mph - N/A   Scattered Clouds
1:00 PM 86.0 °F 91.8 °F 71.6 °F 62% 30.01 in 6.2 mi East 16.1 mph - N/A   Partly Cloudy
2:00 PM 88 °F - 70 °F 46% 29.97 in 14 mi East 16.1 mph - -   Scattered Clouds
2:00 PM 86.0 °F 90.4 °F 69.8 °F 58% 29.98 in 6.2 mi East 15.0 mph - N/A   Partly Cloudy
3:00 PM 86.0 °F 91.8 °F 71.6 °F 62% 29.95 in 6.2 mi East 17.3 mph - N/A   Partly Cloudy
4:00 PM 84.2 °F 89.6 °F 71.6 °F 66% 29.92 in 6.2 mi East 17.3 mph - N/A   Partly Cloudy
5:00 PM 84 °F - 71 °F 56% 29.91 in 14 mi East 16.1 mph - -   Scattered Clouds
5:00 PM 84.2 °F 89.6 °F 71.6 °F 66% 29.92 in 6.2 mi East 16.1 mph - N/A   Partly Cloudy
6:00 PM 82.4 °F 87.2 °F 71.6 °F 70% 29.92 in 6.2 mi East 13.8 mph - N/A   Partly Cloudy
7:00 PM 80.6 °F 83.9 °F 69.8 °F 70% 29.92 in 6.2 mi East 13.8 mph - N/A   Partly Cloudy
8:00 PM 80 °F - 71 °F 67% 29.95 in 14 mi East 12.7 mph - -   Scattered Clouds
8:00 PM 78.8 °F - 71.6 °F 78% 29.95 in 6.2 mi East 13.8 mph - N/A   Partly Cloudy
9:00 PM 78.8 °F - 71.6 °F 78% 29.95 in 6.2 mi East 13.8 mph - N/A   Partly Cloudy
10:00 PM 78.8 °F - 69.8 °F 74% 29.98 in 6.2 mi East 13.8 mph - N/A   Partly Cloudy
11:00 PM 79 °F - 71 °F 69%  in 14 mi East 15.0 mph - -   Scattered Clouds
11:00 PM 78.8 °F - 69.8 °F 74% 29.95 in 6.2 mi East 15.0 mph - N/A   Partly Cloudy